Home   Weather   Eureka   Past weeks
Flag for Canada

Past Weather in Eureka, Nunavut, Canada — Yesterday and Last 2 Weeks

Now
9 °F

Overcast.


Feels Like: -8 °F
Forecast: 0 / -8 °F
Wind: 14 mph from South

Location: Eureka

Current Time: Apr 4, 2020 at 8:26:07 pm

Latest Report: Apr 4, 2020 at 7:00 pm


Visibility: 15 mi

Pressure: 30.42 "Hg

Humidity: 56%

Dew Point: -4 °F

Location of EurekaLocation

Past Weather in Eureka — Graph

°F

Eureka Temperature Yesterday

Maximum temperature yesterday: -6 °F (at 2:00 am)
Minimum temperature yesterday: -9 °F (at 5:00 am)
Average temperature yesterday: -7 °F

High & Low Weather Summary for the Past Weeks

 TemperatureHumidityPressure
High34 °F (Apr 1, 3:00 pm)100% (Apr 1, 3:00 pm)31.00 "Hg (Apr 1, 3:00 pm)
Low-36 °F (Mar 26, 6:00 am)50% (Apr 4, 9:00 am)28.05 "Hg (Apr 3, 5:00 pm)
Average-15 °F72%29.86 "Hg
* Reported Mar 20 7:00 pm — Apr 4 7:00 pm, Eureka. Weather by CustomWeather, © 2020

Note: Actual official high and low records may vary slightly from our data, if they occured in-between our weather recording intervals... More about our weather records

Eureka Weather History for the Previous 24 Hours

Scroll right to see more
 ConditionsComfort  
Time TempWeatherWind HumidityBarometerVisibility
7:00 pm
Sat, Apr 4
9 °FOvercast.14 mph56%30.42 "Hg15 mi
6:00 pm9 °FOvercast.22 mph56%30.47 "Hg15 mi
5:00 pm7 °FOvercast.29 mph61%30.50 "Hg15 mi
4:00 pm5 °FOvercast.25 mph66%30.53 "Hg12 mi
3:00 pm5 °FOvercast.24 mph60%30.58 "Hg15 mi
1:00 pm3 °FLight snow. Overcast.26 mph66%30.63 "Hg8 mi
12:35 pm3 °FLight snow. Overcast.24 mph60%30.64 "Hg10 mi
12:00 pm3 °FOvercast.24 mph55%30.66 "Hg15 mi
11:00 am1 °FOvercast.18 mph60%30.70 "Hg15 mi
10:00 am1 °FMostly cloudy.21 mph55%30.72 "Hg15 mi
9:00 am1 °FLight snow. Mostly cloudy.20 mph50%30.74 "Hg15 mi
8:00 am0 °FPartly sunny.22 mph54%30.76 "Hg15 mi
7:00 am0 °FMostly cloudy.15 mph54%30.78 "Hg15 mi
6:00 am-2 °FMostly cloudy.26 mph54%30.79 "Hg15 mi
5:00 am-4 °FMostly cloudy.14 mph59%30.82 "Hg15 mi
4:00 am-2 °FMostly cloudy.20 mph54%30.84 "Hg15 mi
3:00 am-2 °FMostly cloudy.17 mph54%30.85 "Hg15 mi
2:00 am-4 °FMostly cloudy.21 mph54%30.86 "Hg15 mi
1:00 am-6 °FOvercast.13 mph59%30.89 "Hg15 mi
10:00 pm
Fri, Apr 3
-6 °FPassing clouds.17 mph59%30.94 "Hg15 mi
9:00 pm-6 °FScattered clouds.20 mph59%30.95 "Hg15 mi
8:00 pm-6 °FMostly cloudy.24 mph59%30.97 "Hg15 mi
Weather by CustomWeather, © 2020

See weather overview

Advertising